Flag for Canada Weather past 2 weeks in North Bay, Ontario, Canada

23 °F

Scattered clouds.

Feels Like: 17 °F
Forecast: N/A
Wind: 5 mph from Northeast

Location: North Bay

Current Time: Nov 29, 2015 at 4:53:51 PM

Latest Report: Nov 29, 2015 at 4:00 PM

Visibility: 15 mi

Pressure: 30.45 "Hg

Humidity: 86%

Dew point: 19 °F

Location of North BayLocation

Historic Weather in North Bay — Graph


North Bay temperature yesterday

Maximum temperature yesterday: 23 °F (at 3:00 PM)
Minimum temperature yesterday: 12 °F (at 5:00 AM)
Average temperature yesterday: 17 °F

Past Weeks' High & Low Weather Summary

High66 °F (Nov 18, 3:00 PM)100% (Nov 15, 5:00 AM)30.55 "Hg (Nov 15, 5:00 AM)
Low5 °F (Nov 23, 2:00 AM)42% (Nov 16, 1:00 PM)29.61 "Hg (Nov 19, 1:00 PM)
Average33 °F87%30.16 "Hg
* Reported Nov 14 3:00 PM — Nov 29 3:00 PM, North Bay, Weather by CustomWeather, © 2015

Note: Actual official high and low records may vary slightly from our data, if they occured in-between our weather recording intervals... More about our weather records


North Bay weather history for previous 24 hours

Time TempWeatherWind HumidityBarometerVisibility
3:00 PM
Sun, Nov 29
25 °FSnow flurries. Partly sunny.7 mph86%30.45 "Hg15 mi
2:00 PM25 °FPartly sunny.7 mph80%30.45 "Hg30 mi
1:00 PM25 °FPartly sunny.10 mph80%30.44 "Hg30 mi
12:00 PM25 °FPartly sunny.7 mph86%30.44 "Hg30 mi
11:00 AM25 °FPartly sunny.13 mph86%30.42 "Hg15 mi
10:00 AM25 °FPartly sunny.10 mph93%30.40 "Hg15 mi
9:00 AM25 °FPartly sunny.8 mph93%30.39 "Hg15 mi
8:00 AM25 °FPartly sunny.6 mph93%30.37 "Hg15 mi
7:00 AM25 °FPassing clouds.6 mph93%30.36 "Hg15 mi
6:00 AM25 °FOvercast.6 mph93%30.33 "HgN/A
5:45 AM25 °FMostly cloudy.3 mph93%30.32 "HgN/A
5:00 AM25 °FOvercast.6 mph93%30.32 "HgN/A
4:00 AM25 °FOvercast.3 mph100%30.31 "HgN/A
3:47 AM25 °FOvercast.3 mph100%30.30 "HgN/A
3:00 AM25 °FOvercast.3 mph100%30.30 "HgN/A
2:00 AM23 °FLow clouds.No wind100%30.29 "HgN/A
1:00 AM19 °FPassing clouds.3 mph100%30.30 "HgN/A
12:00 AM18 °FClear.No wind100%30.30 "HgN/A
11:00 PM
Sat, Nov 28
18 °FPassing clouds.No wind100%30.31 "HgN/A
10:00 PM21 °FLight snow. Passing clouds.2 mph93%30.33 "Hg12 mi
9:00 PM21 °FPassing clouds.6 mph93%30.34 "Hg15 mi
8:00 PM21 °FPassing clouds.3 mph93%30.34 "Hg15 mi
7:00 PM18 °FClear.6 mph93%30.33 "Hg15 mi
6:00 PM19 °FClear.7 mph86%30.31 "Hg15 mi
5:00 PM19 °FPassing clouds.5 mph93%30.31 "Hg15 mi
4:00 PM23 °FPassing clouds.6 mph93%30.30 "Hg30 mi
Weather by CustomWeather, © 2015

See weather overviewHow to use our weather pages